星链-4566 (STARLINK-4566 )

导读 | 星芒AI

STARLINK-4566 是 SpaceX Starlink 卫星互联网项目中的一颗低轨通信卫星。它属于 Starlink 群体部署计划的一部分,旨在为全球用户提供高速、低延迟的宽带互联网服务。该卫星运行在约 550 公里的轨道高度,采用先进的通信技术,支持全球范围内的数据传输。STARLINK-4566 的发射有助于扩大 Starlink 网络的覆盖范围,提升网络性能,并为偏远地区提供稳定的互联网接入。该卫星也体现了 SpaceX 在构建全球卫星互联网基础设施方面的持续努力。

基本信息
目录编号:
53693
目录名称:
STARLINK-4566
国际标识:
2022-105AX
轨道中心:
EARTH
卫星名称:
星链-4566
卫星全名:
星链-4566 (STARLINK-4566 )
卫星状态:
在轨 (已飞行1166 天)
发射日期:
2022-08-31 UTC
国别 :
美国 (US)
星等 :
--
轨道信息
数据来源 国际轨道数据
星历时间: 2025-11-08T22:42:27+0800
1天前
查看轨道信息
半长轴: 6927.676km
偏心率: 0.0001905
轨道倾角: 97.601°
近地点辐角 90.942°
升交点赤经 191.965°
平近点角 269.203°
近地点: 548.221km
远地点: 550.861km
周期: 95.640分钟
每日圈数: 15.056412
详细信息
固有亮度:
5
最大亮度:
2.5
卫星平台:
Starlink v1.5
覆盖范围:
全球
运营商:
太空探索技术公司
运营商所在国:
美国
制造商(研发单位):
太空探索技术公司
制造商所在国:
美国
使用方式:
暂无
卫星简介
星链(Starlink)计划是由太空探索技术公司(SpaceX)提出的一个巨型低轨卫星互联网星座项目,计划在2019年至2024年间在太空搭建由约1.2万颗卫星组成的“星链”网络,其中1584颗将部署在地球上空550千米处的近地轨道,并从2020年开始工作。该卫星仍在工作。
2D轨道图
3D轨道图
轨道高度分析图
轨道倾角分析图
轨道综合分析图
查看轨道综合分析图